Estació meteorològica de Bellmunt (Osona, Osona)

Consulta les dades en temps real de l'estació meteorològica de Bellmunt





Hora UTC 02:25
Temperatura 5.2 ºC
Humitat 93.0 %
Pressió 1008.4 hPa
Pluja 0.0 mm
Velocitat vent 9.7 km/h
Direcció vent W

Dades diàries 2026-05-06



Hora UTC (hivern +1h; estiu +2h)
Temperatura (ºC) Humitat (%) Pressió (hPa) Velocitat vent (km/h) Precipitació (mm)
Hora UTC Aire Humitat Pressió Vel. Dir. Vel. Max Dir. Intent. màx 5 min.
00:05 5.9 90.0 1009.0 14.5 WSW 14.5 0.0
00:10 5.9 90.0 1008.9 16.1 WSW 19.3 0.0
00:15 5.8 90.0 1008.9 16.1 SW 19.3 0.0
00:20 5.7 90.0 1008.8 14.5 SW 19.3 0.0
00:25 5.6 90.0 1008.9 12.9 SSW 17.7 0.0
00:30 5.6 91.0 1008.8 12.9 SW 19.3 0.0
00:35 5.6 91.0 1008.8 20.9 SW 24.1 0.0
00:40 5.7 91.0 1008.8 16.1 WSW 29.0 0.0
00:45 5.7 91.0 1008.8 11.3 WSW 29.0 0.0
00:50 5.7 91.0 1008.8 22.5 WSW 24.1 0.0
00:55 5.6 91.0 1008.6 19.3 W 25.7 0.0
01:00 5.6 91.0 1008.7 19.3 WSW 25.7 0.0
01:05 5.5 92.0 1008.7 16.1 SW 25.7 0.0
01:10 5.5 92.0 1008.7 14.5 WSW 22.5 0.0
01:15 5.5 92.0 1008.6 20.9 WSW 25.7 0.0
01:20 5.4 92.0 1008.7 9.7 W 25.7 0.0
01:25 5.3 92.0 1008.6 17.7 W 20.9 0.0
01:30 5.2 92.0 1008.6 20.9 W 20.9 0.0
01:35 5.3 92.0 1008.6 19.3 W 24.1 0.0
01:40 5.2 92.0 1008.5 22.5 W 24.1 0.0
01:45 5.3 93.0 1008.4 20.9 W 22.5 0.0
01:50 5.2 92.0 1008.4 19.3 W 22.5 0.0
01:55 5.2 92.0 1008.3 17.7 W 22.5 0.0
02:00 5.3 93.0 1008.3 16.1 W 22.5 0.0
02:05 5.2 93.0 1008.2 19.3 WNW 22.5 0.0
02:10 5.3 93.0 1008.3 16.1 W 22.5 0.0
02:15 5.3 93.0 1008.3 17.7 W 20.9 0.0
02:20 5.2 93.0 1008.4 14.5 WNW 20.9 0.0
02:25 5.2 93.0 1008.4 9.7 W 19.3 0.0
Màxima 5.9 93.0 1009.0 22.5 W 29.0 0.0
Mínima 5.2 90.0 1008.2
Total 0.0